Вернуться в каталог

STARLINK-2190

АктивенСвязьVLEO
NORAD 48564·PAYLOAD·🇺🇸 United States

Запущен May 15, 2021 с Cape Canaveral Space Force Station

Loading…

Ближайшие Пролёты (ближайшие 24 часа)

TLE

СвежийSource: CelesTrak SupGP

Эпоха: Sep 14, 2026, 20:34 UTC

1 48564C 21041M   26257.85743056 -.00030721  00000+0 -98789-3 0  2570
2 48564  53.1604 326.3689 0001116  79.1497 306.9413 15.31718061    11

Отслеживайте STARLINK-2190 в реальном времени с AllMySat

Download on the App Store